Home   Weather   Kalamaria   Past weeks

Flag for Greece Past Weather in Kalamaria, Greece — Yesterday and Last 2 Weeks

63 °F

Passing clouds.

Feels Like: 63 °F
Forecast: 52 / 69 °F
Wind: 3 mph from North

Location: Thessaloniki Airport

Current Time: Oct 23, 2016 at 9:08:10 PM

Latest Report: Oct 23, 2016 at 8:20 PM

Visibility: N/A

Pressure: 30.15 "Hg

Humidity: 83%

Dew Point: 57 °F

Location of KalamariaLocation

Past Weather in Kalamaria — Graph


Kalamaria Temperature Yesterday

Maximum temperature yesterday: 64 °F (at 2:50 PM)
Minimum temperature yesterday: 57 °F (at 8:20 AM)
Average temperature yesterday: 61 °F

High & Low Weather Summary for the Past Weeks

High73 °F (Oct 12, 11:20 AM)100% (Oct 10, 10:50 AM)30.36 "Hg (Oct 10, 10:50 AM)
Low46 °F (Oct 9, 5:50 AM)29% (Oct 13, 3:20 PM)29.65 "Hg (Oct 12, 5:50 AM)
Average61 °F74%30.09 "Hg
* Reported Oct 8 7:20 PM — Oct 23 7:50 PM, Kalamaria, Weather by CustomWeather, © 2016

Note: Actual official high and low records may vary slightly from our data, if they occured in-between our weather recording intervals... More about our weather records


Kalamaria Weather History for the Previous 24 Hours

Scroll right to see more
Time TempWeatherWind HumidityBarometerVisibility
7:50 PM
Sun, Oct 23
64 °FPassing clouds.3 mph78%30.15 "HgN/A
7:20 PM64 °FPassing clouds.3 mph78%30.12 "HgN/A
6:50 PM66 °FPassing clouds.3 mph73%30.12 "HgN/A
6:20 PM68 °FScattered clouds.3 mph69%30.12 "HgN/A
5:50 PM70 °FScattered clouds.3 mph60%30.12 "HgN/A
5:20 PM70 °FScattered clouds.3 mph64%30.12 "HgN/A
4:50 PM70 °FScattered clouds.3 mph64%30.12 "HgN/A
4:20 PM68 °FScattered clouds.3 mph69%30.12 "HgN/A
3:50 PM68 °FScattered clouds.3 mph69%30.12 "HgN/A
3:20 PM70 °FScattered clouds.5 mph64%30.12 "HgN/A
2:50 PM70 °FScattered clouds.5 mph64%30.12 "Hg5 mi
2:20 PM68 °FScattered clouds.5 mph78%30.12 "Hg5 mi
1:50 PM68 °FScattered clouds.6 mph78%30.12 "Hg5 mi
1:20 PM68 °FScattered clouds.6 mph83%30.15 "Hg5 mi
12:50 PM68 °FScattered clouds.6 mph78%30.15 "Hg5 mi
12:20 PM66 °FScattered clouds.6 mph88%30.15 "Hg4 mi
11:50 AM66 °FRain. Fog.2 mph83%30.15 "Hg5 mi
11:20 AM64 °FBroken clouds.No wind88%30.15 "Hg4 mi
10:50 AM64 °FBroken clouds.3 mph88%30.12 "Hg4 mi
10:20 AM63 °FFog.3 mph94%30.12 "Hg4 mi
9:50 AM63 °FRain. Fog.3 mph94%30.12 "Hg3 mi
9:20 AM61 °FRain. Fog.No wind100%30.12 "Hg2 mi
8:50 AM59 °FRain. Cloudy.No wind100%30.12 "Hg2 mi
8:20 AM59 °FRain. Cloudy.No wind100%30.12 "Hg2 mi
7:50 AM59 °FFog.2 mph100%30.09 "Hg2 mi
7:20 AM61 °FPartly cloudy.3 mph94%30.09 "Hg4 mi
6:50 AM61 °FPartly cloudy.3 mph94%30.09 "Hg5 mi
6:20 AM61 °FPassing clouds.2 mph94%30.09 "Hg5 mi
5:20 AM61 °FPartly cloudy.3 mph100%30.09 "Hg5 mi
4:50 AM61 °FPartly cloudy.2 mph100%30.09 "Hg5 mi
4:20 AM61 °FPartly cloudy.2 mph94%30.09 "Hg5 mi
3:50 AM63 °FPartly cloudy.6 mph94%30.09 "Hg5 mi
3:20 AM72 °FPartly cloudy.3 mph73%30.09 "Hg5 mi
2:50 AM63 °FPartly cloudy.2 mph94%30.09 "Hg4 mi
2:20 AM63 °FPartly cloudy.2 mph94%30.09 "Hg4 mi
1:50 AM63 °FPartly cloudy.2 mph94%30.09 "Hg4 mi
1:20 AM63 °FPartly cloudy.3 mph94%30.09 "Hg4 mi
12:50 AM61 °FPartly cloudy.2 mph94%30.09 "Hg4 mi
12:20 AM61 °FPartly cloudy.1 mph94%30.09 "Hg4 mi
11:50 PM
Sat, Oct 22
61 °FPartly cloudy.2 mph94%30.07 "Hg5 mi
11:20 PM61 °FPartly cloudy.2 mph94%30.07 "Hg5 mi
10:50 PM61 °FPartly cloudy.2 mph94%30.07 "Hg5 mi
10:20 PM61 °FPartly cloudy.3 mph94%30.07 "Hg5 mi
9:50 PM61 °FPartly cloudy.2 mph94%30.07 "Hg5 mi
9:20 PM61 °FPartly cloudy.3 mph94%30.07 "Hg5 mi
Weather by CustomWeather, © 2016

See weather overviewHow to use our weather pages